STARLINK-1186, 45099

Orbit data source: Space-Track

STARLINK-1186, 45099 is a payload satellite owned by SpaceX/Seattle (US) in LEO that was launched on Wed, 29 Jan 2020 UTC via an FALCON 9 launch vehicle from the Air Force Eastern Test Range (AFETR). Payloads include a variety of satellites, spacecraft, and rockets equipped with specific instruments for various scientific and technological missions. These include communications satellites like Starlink; space stations such as the ISS; scientific satellites like the Hubble; Earth observation satellites from companies like Planet Labs, Umbra, and HawkEye 360; GPS; miniature CubeSats for education and research; and military/defense satellites.

Not visible in the next 10 days
STARLINK-1186 details
Identifier
45099, 2020-006BH
Orbit
LEO
Last TLE update4 hours ago
Origin
Flag of USSpaceX/Seattle (US)
ManufacturerSpaceX/Seattle
MissionPartially operational Commercial Communications
Bus & MotorSTARLINK, Unknown motor
Mass260 kg wet, ~248 kg dry
Launch date (UTC)
2020-01-29 (5 years ago)
Launch vehicle
FALCON 9
Launch site
Air Force Eastern Test Range (AFETR)
Object type
Payload
Rocket body
Debris
Shape & HBRBox + 1 Pan, 8.86 m
Radar Cross Section13.562 m², Large (>1 m²)

Expand to show TLE details & history

TLE from 4 hours ago
0 STARLINK-1186
1 45099U 20006BH  24361.25001157  .00190929  00000-0  11742-2 0  9999
2 45099  53.0509  43.1116 0002074  62.6434  67.7409 15.76144266271459
Epoch: 2024-12-26T06:00Z
Definitive object data (Epoch: 2024-12-26T06:00:00.999Z)
Latitude37.60862°
Longitude2.69416°
Altitude343.925 km
Speed7.708 km/s
True Right ascension12h 31m 43s
True Declination37° 25' 56"
Sunlit
Object was in daylight at TLE epoch
Visualization TLE readout
Latitude46.83329°
Longitude-15.94211°
Altitude345.375 km
Speed7.708 km/s
Apparent Right ascension17h 10m 44s
Apparent Declination24° 15' 21"
Sunlit
Object is in full shadow
Visualization observer readout
Local Sidereal Time09:51:04
Azimuth59.033° ENE
Elevation1.455°
Doppler factor1
Orbital elements
Apogee altitude343.05 km
Perigee altitude340.263 km
Semi-major axis6,719.793 km
Eccentricity0.0002074
Inclination53.0509°
RAAN43.1116°
Arg. of periapsis62.6434°
True anomaly67.7629°
Mean anomaly67.7409°
Eccentric anomaly67.7519°
Mean motion3.94012 °/min
BSTAR0.0011742
Orbital period91.37 mins
Loading maneuver chart data...
Loading historical data...
Loading historical data...
Loading historical data...
Loading historical data...
Loading historical data...
Loading historical data...
Loading historical data...

STARLINK-1186 Visibility forecast

Observer location: undefined°, undefined

STARLINK-1186 is not visible in the next 10 days
Span
Click to sort rows by Start time (UTC) header in descending order
Start Az.
Max El. time (UTC)
Max El. Az.
Max El.
End time (UTC)
End Az.
|